AO-07 1 07530U 74089B 26166.56100884 -.00000033 00000-0 83750-4 0 9990 2 07530 101.9901 179.7907 0012550 133.1072 351.4237 12.53698117360319 UO-11 1 14781U 84021B 26166.40912682 .00001009 00000-0 10828-3 0 9991 2 14781 97.8057 132.0037 0007470 178.4123 181.7120 14.90779245256864 LO-19 1 20442U 90005G 26166.50751370 .00000096 00000-0 51150-4 0 9996 2 20442 98.8851 188.2668 0011025 206.2341 153.8286 14.34122746902153 AO-27 1 22825U 93061C 26166.18185475 .00000084 00000-0 48753-4 0 9991 2 22825 98.6881 233.5961 0009522 104.9010 255.3227 14.30941747706710 FO-29 1 24278U 96046B 26166.53668919 .00000013 00000-0 45334-4 0 9993 2 24278 98.5240 15.6350 0350881 100.7038 263.3808 13.53274267472943 GO-32 1 25397U 98043D 26166.58928680 .00000030 00000-0 32966-4 0 9990 2 25397 99.0067 159.3076 0000971 166.4736 193.6468 14.24428093451105 ISS 1 25544U 98067A 26166.51237796 .00007685 00000-0 14626-3 0 9999 2 25544 51.6337 308.3821 0004850 189.0196 171.0706 15.49243792571497 NO-44 1 26931U 01043C 26166.62271618 .00000084 00000-0 62366-4 0 9992 2 26931 67.0507 248.3182 0006076 264.5919 95.4489 14.31955610290220 SO-50 1 27607U 02058C 26166.33462240 .00000861 00000-0 11895-3 0 9994 2 27607 64.5510 134.7172 0075307 262.8143 96.4397 14.83043230264185 CO-55 1 27844U 03031E 26166.49171906 .00000237 00000-0 12167-3 0 9992 2 27844 98.6736 175.0719 0009421 182.9125 177.2000 14.24334794191436 RS-22 1 27939U 03042A 26166.65533953 .00000810 00000-0 13307-3 0 9995 2 27939 98.3461 350.9709 0009958 275.3429 172.8997 14.73465436215328 CO-65 1 32785U 08021C 26166.59150092 .00003848 00000-0 24445-3 0 9993 2 32785 97.8271 147.9768 0009975 44.1299 316.0723 15.09439257984954 CO-66 1 32791U 08021J 26166.56872795 .00015199 00000-0 48345-3 0 9995 2 32791 97.7511 164.3889 0001297 9.9046 350.2220 15.32704207987043 RS-30 1 32953U 08025A 26166.56937948 .00000093 00000-0 60035-3 0 9998 2 32953 82.5039 356.4473 0018919 317.5762 42.3854 12.43179648819494 SRMSAT 1 37841U 11058D 26166.09346315 .00000356 00000-0 49299-4 0 9991 2 37841 19.9720 72.1399 0011839 180.5594 207.7984 14.11575160757522 ZACUBE-1 1 39417U 13066B 26166.40761859 .00002611 00000-0 20511-3 0 9993 2 39417 97.8082 128.7351 0040605 253.8926 105.7825 15.01179836680460 Delfi-N3xt 1 39428U 13066N 26166.50471991 .00004106 00000-0 36070-3 0 9999 2 39428 97.8341 86.8181 0073587 211.3736 148.3085 14.95064686674370 GOMX-1 1 39430U 13066Q 26166.61981649 .00001915 00000-0 29130-3 0 9994 2 39430 97.6479 7.1816 0130161 82.5196 279.0777 14.69456470669689 LO-74 1 39440U 13066AA 26166.38852800 .00003783 00000-0 35100-3 0 9994 2 39440 97.8905 115.3590 0058509 34.8517 325.6511 14.93747885676726 AO-73 1 39444U 13066AE 26166.46559247 .00005832 00000-0 36309-3 0 9995 2 39444 97.8272 137.8755 0035505 207.0229 152.9152 15.09471681679400 DTUSAT-2 1 40030U 14033W 26166.25647814 .00005713 00000-0 30982-3 0 9997 2 40030 98.0859 163.8608 0006465 232.9556 127.1083 15.14996756652393 LILACSAT-2 1 40908U 15049K 26166.59528161 .00014930 00000-0 25496-3 0 9994 2 40908 97.4644 203.3763 0005413 252.6987 107.3673 15.51400500595505 Horyu-4 1 41340U 16012D 26166.43547623 .00392649 54783-4 97992-3 0 9990 2 41340 30.9849 91.8834 0005149 261.3375 98.6703 15.94546005570538 Lapan A3 1 41603U 16040E 26166.62468461 .00003014 00000-0 96456-4 0 9995 2 41603 97.1486 162.8217 0011078 30.9973 329.1921 15.33095830554576 CAS-2T 1 41847U 16066G 26166.16278910 .00001557 00000-0 22513-3 0 9992 2 41847 98.3821 241.9223 0342731 135.6008 227.3214 14.44688208504503 TechnoSat 1 42829U 17042E 26166.38757556 .00003540 00000-0 25302-3 0 9993 2 42829 97.4276 324.1135 0018842 99.9086 260.4269 15.04949457486437 AO-91 1 43017U 17073E 26166.62044886 .00007281 00000-0 31888-3 0 9991 2 43017 97.4705 33.8675 0149767 334.7230 24.6723 15.12698959465157 S-Net D 1 43186U 18014G 26166.48260501 .00004786 00000-0 24781-3 0 9993 2 43186 97.5369 71.2842 0009095 35.5584 324.6253 15.16659437458504 S-Net B 1 43187U 18014H 26166.49402442 .00004573 00000-0 23712-3 0 9994 2 43187 97.5376 71.2823 0009608 30.6839 329.4954 15.16629246458507 S-Net A 1 43188U 18014J 26166.48149198 .00004734 00000-0 24508-3 0 9993 2 43188 97.5385 71.4781 0009515 31.3841 328.7958 15.16667160458504 S-Net C 1 43189U 18014K 26166.29995792 .00004162 00000-0 21616-3 0 9994 2 43189 97.5402 71.3721 0010661 23.9370 336.2357 15.16618943457024 Ten-Koh 1 43677U 18084G 26166.52583235 .00001856 00000-0 14300-3 0 9993 2 43677 98.0772 358.8196 0011408 118.9432 241.2937 15.02938155415911 PO-101 1 43678U 18084H 26166.63605284 .00002304 00000-0 18806-3 0 9999 2 43678 98.1175 2.7770 0012392 175.1096 185.0250 15.00446370415988 QO-100 1 43700U 18090A 26166.54929358 .00000146 00000-0 00000-0 0 9999 2 43700 0.0181 9.4032 0001579 115.5396 2.4214 1.00269803 27669 MinXSS-2 1 43758U 18099A 26166.15107206 .00028891 00000-0 57675-3 0 9998 2 43758 97.4544 242.3758 0006493 263.5903 96.4607 15.46779392413815 AO-95 1 43770U 18099N 26166.11139331 .00011091 00000-0 42485-3 0 9999 2 43770 97.4386 226.3649 0008202 5.4671 354.6656 15.26676025412908 SNUSat 2 1 43782U 18099AA 26166.42648656 .00006605 00000-0 29359-3 0 9991 2 43782 97.4059 219.8371 0008699 305.4961 54.5463 15.21814295412766 SnugLite 1 43784U 18099AC 26166.11246097 .00010865 00000-0 41080-3 0 9990 2 43784 97.3873 220.4128 0001251 309.1681 50.9447 15.27141312413005 ITASat 1 1 43786U 18099AE 26166.37485499 .00005444 00000-0 26262-3 0 9993 2 43786 97.4029 217.9224 0012300 6.7006 353.4391 15.19036687412633 EAGLET 1 1 43790U 18099AJ 26166.59776941 .00003402 00000-0 19649-3 0 9990 2 43790 97.4232 216.3085 0010825 0.2405 359.8829 15.12930844412091 ESEO 1 43792U 18099AL 26166.58383915 .00001987 00000-0 14691-3 0 9994 2 43792 97.3972 204.0404 0011494 345.3208 14.7684 15.04242415411567 JO-97 1 43803U 18099AX 26166.07308693 .00015590 00000-0 48189-3 0 9995 2 43803 97.4132 228.8995 0004244 272.7751 87.3006 15.33596637413307 Suomi 100 1 43804U 18099AY 26166.43856730 .00009561 00000-0 34827-3 0 9991 2 43804 97.4194 226.8380 0008389 286.3545 73.6772 15.28379838413155 ISAT 1 43879U 18111D 26166.37207066 .00077351 00000-0 78395-3 0 9993 2 43879 97.5889 101.4541 0000721 109.1370 250.9967 15.65006060410884 UWE-4 1 43880U 18111E 26166.53236111 .00028345 00000-0 58058-3 0 9999 2 43880 97.5855 94.8474 0005794 350.1958 9.9176 15.46038533410528 Sparrow 1 43881U 18111F 26166.35121018 .00130086 00000-0 90618-3 0 9993 2 43881 97.6124 107.0176 0004403 110.4518 249.7219 15.73955957411082 Prox-1 1 44339U 19036A 26166.18286444 .00010003 00000-0 96925-3 0 9998 2 44339 23.9936 127.6416 0005623 14.1002 345.9654 14.90566351373175 Taurus 1 1 44530U 19059C 26166.61146471 .00004873 00000-0 78318-3 0 9993 2 44530 98.6405 331.3408 0007540 321.9793 38.0879 14.72082018358411 TO-108 1 44881U 19093C 26166.56387360 .00001261 00000-0 14821-3 0 9995 2 44881 97.7539 238.8353 0015112 91.9147 268.3800 14.86519165351170 RS-44 1 44909U 19096E 26166.59792764 .00000010 00000-0 -90401-5 0 9992 2 44909 82.5218 340.7612 0218109 147.8718 213.5894 12.79748870302149 SALSAT 1 46495U 20068K 26166.57567589 .00006463 00000-0 22682-3 0 9999 2 46495 97.8844 169.5420 0008147 315.1312 44.9267 15.29779983315116 CSS (TIANHE-1) 1 48274U 21035A 26166.50532757 .00020720 00000-0 24515-3 0 9992 2 48274 41.4694 332.2368 0007551 63.8756 296.2859 15.60745824292900 CUTE 1 49263U 21088D 26166.24013263 .00135675 90417-5 39922-3 0 9996 2 49263 97.4149 265.3464 0007657 230.3432 129.7167 15.92661724262244 TeikyoSat 4 1 49396U 21102B 26166.59601245 .00001382 00000-0 89979-4 0 9990 2 49396 97.3671 196.1414 0010575 303.0978 56.9235 15.09503617252488 Z-Sat 1 49399U 21102E 26166.61621723 .00002891 00000-0 14402-3 0 9993 2 49399 97.3325 201.9863 0014843 250.9259 109.0368 15.18254859253203 KOSEN 1 1 49402U 21102H 26166.56873723 .00005962 00000-0 22845-3 0 9993 2 49402 97.3183 208.7573 0013020 206.3770 153.6808 15.26816604253779 HO-113 1 50466U 21131B 26166.59680760 .00000478 00000-0 16137-3 0 9991 2 50466 98.4985 258.9948 0005367 100.4652 259.7142 14.41356573234884 SNUGLITE 2 1 52899U 22065F 26166.39111219 .00000790 00000-0 15866-3 0 9991 2 52899 98.2199 311.2248 0008115 38.1819 321.9957 14.64344637210730 UmKA 1 (RS40S) 1 57172U 23091G 26166.58060113 .00005909 00000-0 27048-3 0 9999 2 57172 97.5052 225.2839 0014191 122.6426 237.6181 15.20802870163766 CubeBel-2 (EU11S) 1 57175U 23091K 26166.54787681 .00010849 00000-0 38571-3 0 9996 2 57175 97.5055 229.7498 0011274 119.6432 240.5932 15.29117342164056 RS-38S 1 57189U 23091Z 26166.58411197 .00014203 00000-0 40705-3 0 9991 2 57189 97.5097 236.0367 0008359 82.5639 277.6554 15.35983366164448 SONATE-2 1 59112U 24043Q 26166.40491472 .00034026 00000-0 44395-3 0 9996 2 59112 97.5529 316.6914 0007010 201.6141 158.4820 15.58601060127617 GRBBeta 1 60237U 24128C 26166.49446256 .00002913 00000-0 20649-3 0 9995 2 60237 61.9889 222.2055 0040851 134.3380 226.1074 15.06630585106018 Curium One 1 60242U 24128H 26166.45122146 .00005031 00000-0 29496-3 0 9999 2 60242 61.9769 211.9234 0039952 130.4159 230.0433 15.12492976106195 ROBUSTA-3A 1 60243U 24128J 26166.48116713 .00004988 00000-0 29892-3 0 9996 2 60243 61.9852 214.2780 0041531 127.7723 232.7146 15.11661934106161 CatSat 1 60246U 24125J 26166.34199224 .00047171 00000-0 61081-3 0 9996 2 60246 97.2080 18.8190 0022337 185.9249 174.1747 15.58456533107103 HYPERVIEW-1G (RS66S) 1 61772U 24199AP 26166.60190755 .00120488 00000-0 78713-3 0 9994 2 61772 97.2877 46.2417 0003481 226.5941 133.5035 15.75482058134423 AO-123 1 61781U 24199AY 26166.60114316 .00006603 00000-0 19233-3 0 9997 2 61781 97.3000 35.2866 0012436 320.5786 39.4552 15.35656942133686 JINJUSat 1B 1 63210U 25052A 26166.25359750 .00013466 00000-0 41849-3 0 9992 2 63210 97.4015 63.0067 0005488 95.7374 264.4494 15.33451604 69800 NUSHSAT 1 1 63211U 25052B 26166.23524118 .00015539 00000-0 44637-3 0 9994 2 63211 97.3989 63.5470 0005237 97.9752 262.2087 15.35907168 69840 TEVEL2-4 1 63213U 25052D 26166.16079356 .00014823 00000-0 44473-3 0 9990 2 63213 97.3913 62.5494 0004846 107.3580 252.8193 15.34549992 69809 TEVEL2-5 1 63214U 25052E 26166.50714160 .00015702 00000-0 47332-3 0 9992 2 63214 97.3909 62.8448 0004756 107.9280 252.2482 15.34389584 69859 TEVEL2-6 1 63215U 25052F 26166.45421808 .00014975 00000-0 45210-3 0 9995 2 63215 97.3915 62.7761 0004671 108.6521 251.5230 15.34350757 69848 TEVEL2-1 1 63217U 25052H 26166.22168631 .00014089 00000-0 43283-3 0 9998 2 63217 97.3885 62.1701 0004698 117.4022 242.7699 15.33812138 69797 TEVEL2-3 1 63218U 25052J 26166.21640006 .00014569 00000-0 44668-3 0 9990 2 63218 97.3890 62.1864 0004653 117.3895 242.7821 15.33867104 69792 TEVEL2-2 1 63219U 25052K 26166.22201124 .00014328 00000-0 43999-3 0 9995 2 63219 97.3886 62.1729 0004671 117.7960 242.3756 15.33820586 69791 TEVEL2-9 1 63237U 25052AD 26166.26221951 .00013263 00000-0 43321-3 0 9995 2 63237 97.3947 61.5923 0007638 136.2266 223.9582 15.31847587 69733 TEVEL2-7 1 63238U 25052AE 26166.23742285 .00012882 00000-0 42471-3 0 9992 2 63238 97.3951 61.4847 0007732 136.5558 223.6294 15.31552974 69724 TEVEL2-8 1 63239U 25052AF 26166.50699842 .00013370 00000-0 44078-3 0 9991 2 63239 97.3950 61.7304 0007754 136.5757 223.6096 15.31544661 69768 SPIRONE 1 66657U 25274H 26166.51305635 .00001373 00000-0 13559-3 0 9999 2 66657 97.7484 95.8284 0012833 26.8355 333.3526 14.93539825 29974 K-HERO 1 66660U 25274L 26166.31718518 .00001268 00000-0 12428-3 0 9996 2 66660 97.7491 95.7950 0014791 30.5402 329.6676 14.93956024 29951 SNUGLITE-III DURI 1 66661U 25274M 26166.30501311 .00001485 00000-0 14443-3 0 9997 2 66661 97.7488 95.8032 0015475 31.4633 328.7510 14.93996943 29957 SAKHACUBE-CHOLBON 1 67290U 25313AU 26166.45411810 .00007356 00000-0 29853-3 0 9994 2 67290 97.3939 241.5102 0009022 11.7528 348.3919 15.24861365 25711 RS95S (QMR-KWT-2) 1 67291U 25313AV 26166.57509680 .00011413 00000-0 44256-3 0 9994 2 67291 97.3935 241.8018 0008365 9.1954 350.9436 15.26258709 25740 Ten-Koh2 1 68261U 25241B 26165.65492329 .00005705 00000-0 24669-3 0 9994 2 68261 51.6691 331.6795 0006087 134.4842 225.6634 15.23877984 14528 JACK-002 1 68417U 26067B 26166.44913444 .00005326 00000-0 25502-3 0 9994 2 68417 97.4567 125.0612 0000389 11.4319 348.6924 15.19375186 11680 DISCO 2 1 68431U 26067R 26165.87708211 .00007307 00000-0 35190-3 0 9995 2 68431 97.4601 124.4850 0003056 47.8128 312.3366 15.19043115 11599 HADES-SA (SpinnyONE) 1 68446U 26067AG 26166.11386530 .00014704 00000-0 70433-3 0 9993 2 68446 97.4398 124.4405 0009560 87.3612 272.8717 15.18996836 11616 PARUS-6U1 1 68456U 26067AS 26166.40807814 .00004416 00000-0 22353-3 0 9996 2 68456 97.4553 124.7989 0007557 76.5267 283.6808 15.17500476 11666 SAL-E 1 68458U 26067AU 26166.40379077 .00005677 00000-0 28443-3 0 9999 2 68458 97.4479 124.7320 0008019 83.8040 276.4107 15.17733630 11660 FSI-SAT 2 1 68792U 26088A 26166.35997854 .00004321 00000-0 29325-3 0 9991 2 68792 97.5062 315.6649 0015675 112.3530 247.9361 15.06823435 8014 OrigamiSat 2 1 68795U 26088D 26166.37146187 .00010285 00000-0 65752-3 0 9991 2 68795 97.5064 315.8067 0016080 87.0633 273.2435 15.08698997 8028 ARICA 2 1 68796U 26088E 26166.37036933 .00004231 00000-0 27510-3 0 9993 2 68796 97.5051 315.7964 0016957 85.9612 274.3554 15.08413605 8022 WASEDA-SAT-ZERO-II 1 68797U 26088F 26166.36634240 .00005770 00000-0 37150-3 0 9998 2 68797 97.5052 315.8008 0016735 85.9234 274.3907 15.08624197 8020 MANGARO-II-Piscus 1 68798U 26088G 26166.35697053 .00003752 00000-0 24166-3 0 9990 2 68798 97.5066 315.8201 0020478 88.2913 272.0661 15.08774152 8029 IO-86 1 40931U 25360.30710720 .00000000 00000-0 12800-3 0 00 2 40931 6.0006 332.5373 0012733 338.8432 8.1437 14.79075515 01 LILIUM-4 1 71922C 26067AC 26089.50133053 -.00014632 00000 0 -74472-3 0 04 2 71922 97.4497 49.1617 0004341 5.9603 355.7042 15.16896692 16